STARLINK-35827, 66365

Orbit data source: Space-Track

STARLINK-35827, 66365 is a payload satellite owned by SpaceX/Seattle (US) in LEO that was launched on Thu, 06 Nov 2025 UTC via an FALCON 9 launch vehicle from the Air Force Western Test Range (AFWTR). Payload-class satellites include a variety of spacecraft equipped with specific instruments for various scientific and technological missions. These include communications satellites like Starlink; space stations such as the ISS; scientific satellites like the Hubble; Earth observation satellites from companies like Planet Labs, Umbra, and HawkEye 360; GPS; miniature CubeSats for education and research; and military/defense satellites.

Loading next visibility...
Identifier
66365, 2025-254T
Orbit
LEO
Country
Flag of USUS
Related business
Manufacturer
SpaceX/Seattle
Mission
Operational Commercial Communications
Bus & Motor
STARLINK V2MO, Unknown motor
Mass
575 kg wet, ~530 kg dry
Launch date (UTC)
2025-11-06 (7 months ago)
Launch vehicle
FALCON 9
Launch site
Air Force Western Test Range (AFWTR)
Object type
Payload
Rocket body
Debris
Shape & HBR
Box + 2 Pan, 17.7 m
Radar Cross Section
36.964 m², Large (>1 m²)

Expand to show TLE details & history
Last TLE update: 2 days ago

TLE from 2 days ago
0 STARLINK-35827
1 66365U 25254T   26170.15021271  .00013673  00000-0  45131-3 0  9996
2 66365  53.1592 120.9018 0001217  91.1807 268.9334 15.31718624 34517
Epoch: 2026-06-19T03:36Z
TLE epoch observation values (Epoch: 2026-06-19T03:36:18.378Z)
Latitude
0.00001°
Longitude
159.44191°
Altitude
471.6 km
Speed
7.631 km/s
True Right ascension
08h 03m 36s
True Declination
0° 00' 00"
Sunlit
Object was in daylight at epoch
Visualization orbit readout
Latitude
Unknown
Longitude
Unknown
Altitude
Unknown
Speed
Unknown
Apparent Right ascension
Unknown
Apparent Declination
Unknown
Sunlit
N/A
Visualization observer readout
Local Sidereal Time
07:18:16
Azimuth
Unknown
Elevation
Unknown
Doppler factor
Unknown
Orbital elements
Apogee altitude
471.775 km
Perigee altitude
470.108 km
Semi-major axis
6,849.078 km
Eccentricity
0.00012
Inclination
53.1592°
RAAN
120.9018°
Arg. of periapsis
91.1807°
True anomaly
268.91946°
Mean anomaly
268.9334°
Eccentric anomaly
268.92643°
Mean motion
3.82908 °/min
Orbital period
94.02 mins
BSTAR
0.00045131
Loading maneuver chart data...
Computing Atmospheric mass density...
Loading historical data...
Loading historical data...
Loading historical data...
Loading historical data...
Loading historical data...
Loading historical data...
Loading historical data...

Documentation

Showing up to 5 results
|